Location: Roland
(31.1349°N, 85.4372°W)
Time: 01:39:12
(UTC+00:00)

S-56A Canister/Altair - Pass Details

Date: 20 April 2021
Orbit: 632 x 2500 km, 38.9° (Epoch: 06 May)

Event Time Altitude Azimuth Distance (km) Brightness Sun altitude
Exits shadow 08:07:43 25° 52° (NE) 1,321 9.2 -34.6°
Drops below altitude 10° 08:09:56 10° 74° (ENE) 2,020 10.3 -34.2°
Sets 08:12:17 0° 84° (E) 2,911 11.2 -33.9°
